Temp
102 103 102 100 99 100 99 97 96 96 96 95 94 95 96 95 94 92 91 89 87 87 87 88 88 88 88 88 88 89 89 89 89 89 89 89 90 90 90 91 90 90 92 92 91 91 92 92 93 93 92 91 91 91 90 90 89 90 90 89 88 89 88
100 102 104 104 101 99 99 98 97 97 96 96 95 94 96 95 93 93 91 90 88 88 88 88 87 88 88 88 89 88 88 88 89 89 90 89 90 90 91 90 90 90 90 92 93 92 92 93 93 93 92 92 91 91 91 90 89 89 90 89 88 87 88
100 102 103 103 102 100 98 99 97 97 97 97 97 96 95 93 93 92 91 91 89 88 89 88 88 89 89 88 88 88 89 89 89 89 90 91 91 93 92 91 91 92 92 92 93 94 94 93 92 92 93 92 92 91 90 90 89 89 90 89 89 88 87
99 101 104 104 102 100 100 99 98 99 99 99 98 97 95 93 95 93 93 92 90 89 88 89 89 90 90 88 88 88 88 89 89 90 91 92 91 92 91 91 91 92 92 92 94 95 95 93 93 92 91 91 91 91 91 90 91 89 90 89 89 89 87
101 101 104 103 103 101 100 100 99 97 100 101 99 96 96 96 97 96 95 95 95 91 92 92 93 92 91 90 90 90 89 89 89 91 91 92 91 91 91 92 92 93 92 94 93 92 92 92 93 92 91 91 91 91 91 91 91 89 89 89 88 89 88
102 101 102 104 104 103 101 101 102 102 101 101 100 99 99 100 99 99 97 95 95 95 93 92 92 91 90 92 92 91 90 90 89 90 91 91 91 91 92 92 93 93 95 93 94 94 93 93 93 92 92 93 93 93 93 91 92 91 89 88 88 89 89
102 102 103 104 105 103 103 102 104 104 102 103 103 101 101 101 99 99 99 98 97 94 95 95 95 94 91 92 91 90 89 91 90 91 92 92 92 91 91 92 92 94 94 93 93 94 93 92 92 92 92 93 91 93 91 90 90 91 89 88 87 88 88
102 102 102 104 107 108 104 103 104 105 103 103 103 102 101 101 101 101 100 100 99 99 97 97 95 93 91 92 92 92 91 92 92 92 92 92 92 91 92 92 92 93 93 94 93 93 94 92 93 92 93 93 91 91 92 90 89 92 90 88 87 88 90
105 103 104 106 106 107 107 105 104 104 101 100 101 101 101 101 101 101 101 101 100 99 98 99 98 96 92 92 91 91 92 93 92 92 92 93 93 94 95 94 93 93 93 94 95 94 93 93 93 91 91 91 91 90 91 90 90 91 90 88 87 87 89
104 102 103 106 106 109 104 103 103 101 100 98 98 99 100 101 101 101 101 101 102 101 100 100 100 98 94 93 93 93 92 91 92 94 94 94 95 95 96 96 95 94 94 95 97 95 93 93 93 92 90 90 90 90 90 90 90 90 90 89 88 88 87
104 101 101 103 103 104 105 106 102 98 98 95 96 101 100 100 101 102 101 102 102 102 102 101 100 100 97 95 95 95 92 94 95 94 94 95 96 97 97 98 98 96 95 96 96 97 95 92 93 91 90 90 90 90 90 90 90 89 90 90 90 89 89
99 99 97 100 101 102 102 100 99 97 97 96 99 101 98 98 101 103 103 102 104 103 102 102 103 101 98 97 96 93 93 93 94 94 95 96 97 98 98 99 98 98 96 96 96 96 97 94 93 92 90 90 91 91 90 90 90 89 89 91 91 89 90
99 97 96 99 98 100 99 98 98 97 96 100 102 102 102 102 102 103 100 101 104 104 103 101 101 99 99 98 97 94 94 93 93 94 96 94 96 98 98 99 100 100 98 97 96 97 97 97 93 92 92 90 91 91 90 90 90 89 89 90 90 89 89
95 100 99 98 97 96 95 95 96 96 96 98 101 101 102 103 104 102 101 101 102 105 105 103 101 99 98 96 95 93 94 93 93 93 93 94 93 95 98 99 99 97 97 96 96 97 97 98 95 94 93 92 91 91 91 90 90 89 89 89 90 90 89
101 101 99 99 96 94 94 95 93 95 97 97 100 100 101 102 102 101 100 102 101 105 105 102 100 99 99 96 94 92 92 92 93 94 93 93 93 94 95 97 96 96 96 95 96 97 98 98 98 94 92 92 91 91 91 91 90 91 90 89 89 90 90
102 103 103 101 98 98 95 95 94 94 95 94 97 97 101 99 99 101 101 102 103 101 104 102 100 97 97 96 93 93 92 92 92 91 92 92 91 91 93 96 96 97 96 95 96 95 94 95 95 97 94 92 91 91 91 91 91 83 74 78 89 89 91
101 102 105 103 97 99 96 96 96 95 94 93 95 96 97 98 99 101 104 104 104 101 103 105 99 98 97 94 94 93 92 91 91 91 90 91 91 91 91 92 94 93 93 93 94 93 92 93 95 96 96 93 93 92 92 92 91 73 69 70 74 87 89
99 99 101 103 103 104 102 102 99 96 96 97 98 97 98 96 99 101 102 103 103 104 105 104 101 99 94 95 93 93 92 91 91 90 90 90 90 90 90 91 92 92 92 92 93 92 93 93 93 93 95 95 94 94 93 93 78 69 68 69 69 75 89
98 99 100 100 100 100 104 105 105 99 101 102 100 99 100 100 101 98 99 100 102 103 104 103 103 97 94 94 93 92 91 91 90 90 89 89 90 90 90 90 90 91 92 92 92 93 91 91 92 92 93 94 92 93 94 95 75 67 66 68 68 69 80
100 101 102 104 104 104 103 102 102 104 105 104 104 106 104 102 102 101 102 103 102 102 99 98 98 97 95 94 93 92 91 90 90 89 89 90 90 90 89 89 89 91 93 93 92 91 91 92 91 91 91 92 92 91 94 95 74 65 65 66 66 67 74
98 99 99 100 100 103 102 100 100 101 101 106 108 106 105 103 104 103 103 102 102 100 97 98 97 97 95 92 92 92 91 90 90 89 89 89 89 89 89 89 89 90 92 93 93 91 90 91 90 91 91 93 94 93 95 97 71 63 63 63 63 65 70
101 102 102 103 101 100 99 103 102 104 103 104 105 108 107 106 106 106 104 105 102 101 99 97 95 96 94 92 92 92 92 91 90 89 89 89 89 89 88 88 88 88 90 91 93 93 93 92 93 92 92 92 93 93 92 96 69 62 62 62 62 64 78
103 103 104 103 105 105 103 99 100 102 101 101 104 105 107 108 109 106 105 104 103 100 101 98 94 94 93 92 93 93 92 92 91 90 89 89 89 88 88 88 88 89 90 91 92 93 92 91 93 92 93 92 91 91 91 95 75 59 60 60 60 65 81
106 106 105 105 104 104 102 102 101 100 100 101 101 103 104 107 107 104 101 101 102 101 100 98 95 94 93 93 92 92 92 92 91 90 89 89 88 88 90 91 91 91 90 90 92 93 94 94 93 93 93 93 92 93 92 94 78 57 59 59 58 68 82
100 100 103 104 102 101 102 99 96 97 98 98 100 102 103 104 105 106 100 99 103 102 99 96 96 95 95 94 94 93 92 93 92 91 91 89 89 90 90 90 90 91 91 93 93 93 93 93 93 93 93 96 95 80 89 94 82 56 59 57 57 68 83
94 96 98 100 102 98 94 92 92 93 96 99 98 100 101 103 102 100 98 101 103 101 99 97 97 96 97 96 95 94 93 94 91 91 91 90 90 91 91 92 93 92 93 92 93 93 94 94 94 94 94 95 95 95 94 93 93 72 57 56 56 60 81
96 96 96 98 96 89 94 95 96 96 98 95 95 100 101 102 100 98 98 97 96 97 100 99 98 96 96 95 97 96 94 94 93 91 91 92 91 92 92 93 93 93 92 93 94 93 92 93 94 95 94 96 95 95 96 95 94 80 55 55 55 57 68
94 94 96 96 92 91 94 97 93 93 98 96 95 96 98 97 96 95 95 95 95 97 102 99 97 96 95 94 94 96 95 95 93 92 93 91 91 90 90 92 93 93 93 94 92 90 90 90 91 93 94 95 94 93 92 90 79 90 57 57 54 56 59
89 89 90 91 93 94 94 94 92 94 94 97 98 96 97 98 94 94 94 93 95 98 99 99 97 95 95 93 94 93 94 93 93 92 94 92 91 90 90 91 91 91 91 90 90 89 89 89 89 90 90 90 92 92 92 92 87 73 70 56 54 54 56
88 88 90 94 95 92 93 90 90 91 91 91 90 92 93 95 92 92 92 92 95 96 97 97 96 95 93 93 93 93 94 94 94 93 93 92 91 90 90 90 90 90 90 89 89 89 88 89 88 88 89 90 90 92 94 92 93 76 64 63 53 54 54
87 88 90 89 90 89 91 90 88 88 87 87 88 89 91 94 92 91 91 92 94 94 95 96 94 93 92 93 93 92 94 94 93 92 92 92 92 89 89 90 90 89 89 89 89 89 88 88 89 88 89 89 89 90 91 92 92 94 71 60 55 55 53
86 88 90 90 88 88 90 91 90 89 88 88 89 88 88 90 92 89 87 89 92 94 94 93 92 91 91 92 92 93 94 93 94 92 91 91 92 91 91 91 91 90 89 89 89 88 88 88 90 90 89 88 89 89 90 90 92 92 88 65 60 57 55
86 86 87 86 85 85 88 89 89 88 88 88 91 93 93 90 90 88 87 88 91 92 91 92 91 90 90 91 92 92 92 92 92 92 92 91 94 95 93 93 92 92 89 89 90 89 88 88 88 89 90 89 89 89 89 90 91 92 92 82 76 73 67
83 83 84 83 84 85 86 87 86 85 84 83 86 88 90 90 89 89 91 92 93 92 90 90 90 91 91 92 93 92 92 92 90 91 93 92 93 96 95 93 94 93 89 89 89 88 88 88 88 88 89 90 91 90 90 91 90 92 90 86 81 79 77
81 81 81 82 84 85 85 84 84 83 83 82 84 85 86 86 87 88 88 89 90 90 89 89 89 91 92 93 94 94 92 94 93 94 94 93 91 92 88 90 95 92 92 90 88 92 93 92 91 90 92 92 89 88 89 89 90 82 55 63 57 70 84
80 80 80 82 82 83 82 81 81 81 80 81 82 82 82 83 83 84 87 87 88 89 88 88 89 90 92 93 94 95 94 94 96 94 93 96 94 89 79 62 54 69 89 84 62 49 51 60 76 76 81 84 84 81 78 79 77 54 48 47 50 52 50
79 79 80 81 80 79 79 80 80 79 79 79 80 81 81 81 82 83 84 85 86 86 86 87 86 86 85 83 84 82 88 94 95 94 92 94 96 91 84 83 74 49 46 55 54 50 45 44 45 49 56 71 80 76 61 56 50 46 44 44 44 42 45
78 80 80 81 80 78 78 78 78 78 78 80 80 81 80 81 81 82 83 83 83 84 84 85 84 82 83 83 82 82 84 85 85 91 91 90 89 88 87 86 81 75 53 46 51 51 47 46 45 45 46 47 54 67 76 61 52 44 44 43 42 43 42
MSLP
999.07 998.87 999.15 999.67 1000.11 1000.47 1000.71 1001.15 1001.51 1001.95 1002.31 1002.75 1003.11 1003.31 1003.55 1003.91 1004.31 1004.87 1005.55 1006.11 1006.75 1007.31 1007.59 1007.87 1008.27 1008.63 1009.07 1009.39 1009.63 1009.91 1010.27 1010.63 1010.83 1011.19 1011.47 1011.63 1011.75 1011.95 1012.23 1012.27 1012.55 1012.67 1012.63 1012.91 1012.99 1013.11 1013.03 1013.03 1013.15 1013.39 1013.67 1013.95 1014.23 1014.35 1014.55 1014.71 1014.99 1015.11 1015.27 1015.47 1015.79 1015.99 1016.15
999.15 998.79 998.55 998.87 999.79 1000.11 1000.19 1000.47 1001.03 1001.47 1001.95 1002.23 1002.63 1002.91 1003.03 1003.39 1003.75 1004.35 1004.83 1005.35 1005.91 1006.43 1006.83 1007.19 1007.67 1008.03 1008.39 1008.79 1009.03 1009.43 1009.91 1010.15 1010.35 1010.59 1010.83 1011.15 1011.27 1011.39 1011.43 1011.75 1011.99 1012.23 1012.27 1012.15 1012.27 1012.39 1012.51 1012.67 1012.87 1013.11 1013.39 1013.59 1013.91 1013.99 1014.23 1014.47 1014.71 1014.91 1015.07 1015.31 1015.67 1015.95 1016.03
998.47 998.31 998.15 998.47 999.15 999.63 999.91 1000.03 1000.51 1000.75 1001.15 1001.55 1001.99 1002.43 1002.51 1002.67 1002.87 1003.39 1004.07 1004.83 1005.55 1005.91 1006.23 1006.67 1007.03 1007.39 1007.71 1008.11 1008.63 1009.03 1009.27 1009.59 1009.91 1010.23 1010.47 1010.63 1010.83 1010.95 1011.03 1011.23 1011.43 1011.63 1011.71 1011.75 1011.79 1011.95 1012.03 1012.39 1012.51 1012.71 1012.95 1013.27 1013.47 1013.75 1013.95 1014.19 1014.43 1014.63 1014.75 1014.95 1015.35 1015.67 1015.91
997.83 998.07 997.63 997.59 998.11 998.55 998.99 999.31 999.87 1000.23 1000.43 1000.79 1001.23 1001.47 1001.79 1002.11 1002.23 1002.59 1003.11 1003.79 1004.75 1005.39 1005.99 1006.11 1006.39 1006.79 1007.15 1007.67 1008.11 1008.43 1008.79 1009.03 1009.23 1009.51 1009.71 1009.91 1010.27 1010.43 1010.71 1010.87 1010.99 1011.07 1011.35 1011.47 1011.39 1011.51 1011.59 1011.87 1012.23 1012.47 1012.67 1012.95 1013.19 1013.31 1013.59 1013.87 1014.07 1014.39 1014.51 1014.75 1015.07 1015.19 1015.51
996.63 997.31 997.07 997.39 997.83 998.31 998.75 999.07 999.43 999.71 999.75 999.75 1000.15 1000.75 1001.19 1001.63 1002.11 1002.47 1002.79 1003.07 1003.59 1004.35 1004.67 1005.07 1005.47 1005.91 1006.31 1006.71 1007.23 1007.63 1008.03 1008.35 1008.67 1008.87 1009.11 1009.31 1009.55 1009.91 1010.31 1010.47 1010.55 1010.67 1010.71 1010.87 1011.03 1011.27 1011.47 1011.67 1011.91 1012.23 1012.47 1012.63 1012.91 1013.03 1013.31 1013.51 1013.75 1014.03 1014.31 1014.47 1014.87 1014.95 1015.27
996.23 996.79 996.87 996.83 997.27 997.71 998.03 998.23 998.39 998.71 999.11 999.47 999.87 1000.51 1000.95 1001.39 1001.75 1002.15 1002.39 1002.83 1003.19 1003.51 1003.95 1004.55 1005.07 1005.51 1006.03 1006.15 1006.47 1006.91 1007.31 1007.71 1007.99 1008.27 1008.63 1008.87 1009.23 1009.55 1009.79 1009.91 1009.99 1010.15 1010.35 1010.47 1010.51 1010.79 1011.07 1011.35 1011.55 1011.75 1012.15 1012.27 1012.47 1012.67 1012.87 1013.19 1013.35 1013.55 1013.95 1014.23 1014.51 1014.63 1014.87
995.71 996.19 996.31 996.23 996.27 997.23 997.43 997.59 997.63 997.91 998.31 998.67 999.15 999.75 1000.31 1000.63 1001.07 1001.39 1001.79 1002.35 1002.63 1003.31 1003.67 1004.07 1004.31 1004.71 1005.15 1005.43 1005.91 1006.31 1006.83 1007.15 1007.47 1007.79 1007.95 1008.35 1008.59 1009.03 1009.23 1009.35 1009.47 1009.55 1009.63 1009.79 1010.23 1010.27 1010.67 1011.03 1011.19 1011.35 1011.59 1011.83 1012.11 1012.23 1012.51 1012.83 1013.07 1013.19 1013.55 1013.95 1014.27 1014.31 1014.47
995.23 996.03 996.19 995.91 995.79 996.35 997.39 997.11 997.23 997.43 997.95 998.31 998.75 999.27 999.75 999.83 1000.39 1000.95 1001.23 1001.43 1001.91 1002.31 1002.79 1003.15 1003.55 1003.91 1004.39 1004.75 1005.11 1005.59 1005.99 1006.31 1006.63 1007.03 1007.39 1007.87 1008.15 1008.51 1008.71 1008.87 1009.03 1009.03 1009.23 1009.59 1009.71 1009.83 1010.19 1010.51 1010.71 1010.91 1011.15 1011.47 1011.75 1011.95 1012.11 1012.39 1012.75 1012.87 1013.11 1013.67 1013.95 1014.15 1014.11
994.43 994.83 995.43 995.47 995.47 995.71 996.59 996.87 996.95 997.11 997.71 998.23 998.39 998.67 999.15 999.55 999.79 1000.03 1000.31 1000.75 1001.15 1001.59 1001.95 1001.99 1002.43 1002.87 1003.51 1004.11 1004.59 1005.03 1005.27 1005.63 1006.11 1006.51 1006.95 1007.39 1007.63 1007.91 1008.07 1008.27 1008.47 1008.55 1008.91 1009.07 1009.19 1009.35 1009.59 1009.91 1010.19 1010.51 1010.79 1011.11 1011.35 1011.63 1011.87 1012.07 1012.39 1012.51 1012.83 1013.19 1013.55 1013.83 1013.83
994.23 994.75 994.95 994.95 994.79 994.79 995.75 996.43 996.55 996.91 997.59 998.19 998.43 998.55 998.83 998.99 999.19 999.47 999.79 999.95 1000.19 1000.71 1000.95 1001.35 1001.75 1002.31 1002.99 1003.51 1003.91 1004.27 1004.83 1005.27 1005.47 1005.91 1006.31 1006.75 1006.87 1007.19 1007.27 1007.43 1007.75 1007.95 1008.31 1008.47 1008.51 1008.91 1009.15 1009.31 1009.67 1010.11 1010.51 1010.87 1011.11 1011.35 1011.59 1011.79 1011.99 1012.23 1012.43 1012.75 1013.07 1013.31 1013.51
994.07 994.63 995.31 995.59 995.51 995.27 995.27 995.59 996.43 997.07 997.23 997.75 997.99 997.99 998.19 998.55 998.83 998.95 999.27 999.39 999.63 999.83 1000.15 1000.71 1001.03 1001.67 1002.31 1002.83 1003.31 1003.71 1004.19 1004.55 1004.79 1005.19 1005.55 1005.83 1005.95 1006.23 1006.47 1006.67 1006.91 1007.23 1007.59 1007.83 1008.07 1008.19 1008.63 1009.07 1009.19 1009.67 1010.15 1010.55 1010.79 1011.03 1011.27 1011.43 1011.59 1011.91 1012.11 1012.27 1012.47 1012.75 1012.95
995.15 995.63 996.27 996.07 995.99 995.95 996.03 995.99 996.27 996.91 997.23 997.55 997.75 997.87 998.07 998.23 998.39 998.51 998.67 998.87 998.87 999.47 999.83 1000.11 1000.31 1000.87 1001.67 1002.27 1002.83 1003.23 1003.55 1003.87 1004.19 1004.43 1004.75 1004.99 1005.15 1005.35 1005.59 1005.83 1006.19 1006.51 1006.87 1007.11 1007.55 1007.75 1007.95 1008.55 1008.91 1009.19 1009.71 1009.99 1010.23 1010.43 1010.71 1010.87 1011.11 1011.43 1011.63 1011.83 1011.99 1012.27 1012.43
995.75 996.31 996.55 996.39 996.43 996.27 996.27 996.51 996.75 997.07 997.31 997.39 997.39 997.47 997.59 997.79 997.99 998.11 998.31 998.55 998.55 998.71 999.19 999.55 999.91 1000.39 1001.07 1001.67 1002.19 1002.71 1003.03 1003.31 1003.59 1003.75 1004.07 1004.35 1004.51 1004.59 1004.95 1005.27 1005.47 1005.79 1006.23 1006.47 1006.87 1007.23 1007.55 1007.75 1008.43 1008.67 1009.03 1009.43 1009.63 1009.91 1010.15 1010.43 1010.63 1010.91 1011.15 1011.31 1011.51 1011.83 1012.11
996.11 996.07 996.19 996.35 996.63 996.91 997.27 997.15 997.03 997.11 997.31 997.27 997.19 997.11 997.23 997.23 997.35 997.63 997.91 998.31 998.31 998.39 998.71 999.07 999.51 1000.03 1000.55 1001.15 1001.75 1002.19 1002.47 1002.67 1002.91 1003.27 1003.51 1003.67 1004.03 1004.27 1004.39 1004.63 1004.91 1005.19 1005.47 1005.87 1006.43 1006.67 1006.91 1007.19 1007.71 1008.11 1008.35 1008.67 1008.99 1009.19 1009.43 1009.83 1010.11 1010.31 1010.55 1010.75 1010.95 1011.27 1011.59
995.59 995.99 996.31 996.59 996.79 996.95 997.07 997.31 997.31 997.23 997.19 997.19 997.03 997.11 997.19 997.23 997.23 997.31 997.59 997.71 997.95 998.03 998.19 998.47 999.23 999.79 1000.23 1000.71 1001.23 1001.55 1001.79 1002.15 1002.55 1002.83 1003.15 1003.47 1003.79 1004.03 1004.15 1004.27 1004.51 1004.83 1005.15 1005.47 1005.87 1006.03 1006.23 1006.39 1006.75 1007.43 1007.95 1008.11 1008.39 1008.67 1008.79 1009.11 1009.39 1009.55 1009.83 1010.27 1010.51 1010.59 1010.95
995.71 995.43 995.67 995.95 996.47 996.55 996.71 996.71 996.91 997.07 997.03 997.15 997.07 997.11 997.07 997.19 997.27 997.31 997.55 997.75 997.75 997.95 997.75 998.03 998.79 999.47 999.91 1000.35 1000.71 1000.99 1001.35 1001.79 1002.11 1002.51 1002.79 1003.23 1003.55 1003.75 1003.83 1003.99 1004.27 1004.55 1004.87 1005.15 1005.35 1005.63 1005.87 1006.07 1006.27 1006.63 1007.27 1007.75 1007.95 1008.11 1008.27 1008.43 1008.51 1008.71 1009.11 1009.39 1009.75 1010.11 1010.31
995.59 995.19 994.63 994.83 995.91 995.83 996.15 996.27 996.39 996.71 996.91 997.03 996.99 996.87 996.83 996.83 996.91 996.95 997.03 997.19 997.35 997.67 997.55 997.67 998.55 999.15 999.59 1000.03 1000.27 1000.71 1001.07 1001.51 1001.83 1002.11 1002.55 1002.71 1003.03 1003.35 1003.71 1003.83 1003.95 1004.27 1004.63 1004.87 1005.11 1005.39 1005.63 1005.91 1006.19 1006.31 1006.51 1007.07 1007.39 1007.67 1007.75 1007.75 1007.71 1008.11 1008.63 1008.99 1009.31 1009.55 1009.87
996.07 995.79 995.39 995.03 994.95 994.75 995.03 995.43 995.91 996.35 996.55 996.47 996.43 996.47 996.51 996.59 996.63 996.75 996.79 996.67 996.91 997.03 997.19 997.47 997.91 998.59 999.15 999.55 1000.03 1000.47 1000.83 1001.11 1001.47 1001.91 1002.19 1002.47 1002.79 1002.99 1003.27 1003.51 1003.75 1004.03 1004.31 1004.63 1004.95 1005.15 1005.27 1005.71 1005.87 1005.95 1006.07 1006.35 1006.67 1006.95 1006.95 1006.99 1006.99 1007.55 1008.03 1008.51 1008.87 1009.11 1009.31
996.47 996.07 995.67 995.43 995.35 995.35 995.23 994.87 994.47 995.27 995.47 995.31 995.63 995.83 995.75 995.83 996.11 996.43 996.35 996.47 996.47 996.51 996.87 997.15 997.39 998.15 998.91 999.19 999.55 999.91 1000.31 1000.71 1001.19 1001.55 1001.87 1002.11 1002.31 1002.63 1003.03 1003.39 1003.63 1003.87 1004.07 1004.31 1004.39 1004.75 1005.19 1005.39 1005.55 1005.75 1005.71 1005.83 1006.19 1006.31 1006.23 1006.27 1006.35 1006.99 1007.47 1007.91 1008.27 1008.59 1008.79
995.87 995.51 995.15 994.71 994.47 994.51 994.63 994.71 994.79 994.55 994.39 994.47 994.55 994.55 994.79 994.95 995.31 995.51 995.59 995.83 995.99 996.31 996.51 996.99 997.31 997.75 998.47 998.87 999.19 999.47 999.87 1000.23 1000.67 1001.11 1001.35 1001.67 1002.07 1002.43 1002.79 1003.11 1003.35 1003.35 1003.43 1003.79 1004.11 1004.47 1004.75 1004.95 1005.19 1005.27 1005.43 1005.43 1005.55 1005.71 1005.59 1005.55 1005.71 1006.35 1006.79 1007.23 1007.67 1007.95 1008.23
995.51 995.35 995.31 995.15 995.15 994.79 994.63 994.83 994.87 994.75 994.67 994.31 993.87 993.83 994.15 994.67 994.75 995.03 995.35 995.51 995.83 996.03 996.55 996.79 997.15 997.43 997.95 998.51 998.79 999.19 999.55 999.91 1000.23 1000.67 1001.03 1001.39 1001.75 1002.11 1002.39 1002.59 1002.83 1003.11 1003.19 1003.35 1003.67 1004.07 1004.39 1004.55 1004.79 1004.79 1004.87 1004.95 1005.03 1005.23 1005.27 1004.87 1005.11 1005.75 1006.27 1006.71 1007.15 1007.51 1007.87
994.87 994.51 994.51 994.19 994.39 994.55 994.59 994.35 994.35 994.23 994.15 993.71 993.79 993.71 993.75 994.11 994.15 994.55 994.91 994.91 995.43 995.75 996.07 996.55 996.99 997.19 997.47 998.07 998.35 998.63 998.95 999.39 999.91 1000.35 1000.71 1001.07 1001.39 1001.71 1001.99 1002.11 1002.35 1002.71 1002.79 1003.07 1003.19 1003.31 1003.63 1003.91 1003.95 1004.27 1004.51 1004.51 1004.63 1004.75 1004.83 1004.39 1004.67 1005.27 1005.79 1006.23 1006.79 1007.27 1007.71
994.07 993.91 993.67 993.63 993.51 993.55 993.43 993.99 994.11 993.95 993.95 994.07 993.99 993.87 993.75 993.43 993.51 994.03 994.35 994.83 995.03 995.43 995.79 996.23 996.79 996.87 996.95 997.47 997.83 998.19 998.59 998.99 999.47 999.95 1000.27 1000.55 1001.03 1001.35 1001.59 1001.87 1002.19 1002.39 1002.43 1002.95 1002.95 1003.15 1003.27 1003.39 1003.51 1003.55 1003.83 1004.03 1004.11 1004.31 1004.23 1004.07 1004.19 1004.87 1005.35 1005.79 1006.27 1007.07 1007.19
992.99 992.99 993.15 993.15 992.91 993.07 993.31 993.43 993.59 993.67 993.99 994.07 993.99 993.75 993.51 993.27 993.27 993.67 994.31 994.59 994.79 995.23 995.63 995.91 996.31 996.35 996.63 997.03 997.35 997.75 998.15 998.51 998.95 999.47 999.83 1000.15 1000.47 1000.67 1000.91 1001.19 1001.47 1001.83 1001.87 1002.39 1002.55 1002.59 1002.51 1002.67 1002.99 1002.99 1003.03 1003.23 1003.39 1003.35 1003.75 1003.67 1003.71 1004.43 1004.95 1005.35 1005.83 1006.11 1006.39
994.11 993.59 992.79 992.87 993.43 993.83 993.71 993.87 994.15 994.11 993.91 993.99 994.15 993.51 993.27 993.27 993.23 993.47 994.23 994.43 994.47 994.75 995.31 995.55 995.63 995.95 996.31 996.63 996.95 997.31 997.67 998.07 998.51 998.91 999.31 999.63 999.79 1000.03 1000.51 1000.71 1000.91 1001.03 1001.27 1001.55 1001.83 1001.99 1001.95 1002.15 1002.39 1002.51 1002.51 1002.47 1002.63 1002.87 1003.31 1003.27 1003.35 1003.91 1004.39 1004.99 1005.43 1005.67 1005.59
995.15 994.63 994.15 993.87 993.55 993.91 994.31 994.47 994.67 994.67 994.43 994.11 993.87 993.39 993.11 993.23 993.35 993.55 993.95 994.23 994.15 994.51 994.87 994.91 995.07 995.39 995.79 996.15 996.47 996.79 997.19 997.43 997.99 998.35 998.75 999.15 999.43 999.63 999.91 1000.11 1000.43 1000.71 1000.99 1001.19 1001.31 1001.63 1001.67 1001.71 1001.87 1002.15 1002.15 1002.03 1002.23 1002.31 1002.47 1002.75 1002.71 1003.23 1003.87 1004.43 1004.91 1005.07 1004.91
994.91 994.71 994.79 994.55 994.51 994.75 994.67 994.31 994.19 994.35 993.91 993.83 993.55 993.23 993.15 993.15 993.59 993.91 993.83 994.03 994.31 994.35 994.15 994.31 994.59 994.95 995.39 995.75 996.03 996.43 996.79 996.99 997.39 997.95 998.23 998.47 998.91 999.11 999.39 999.51 999.83 1000.11 1000.47 1000.83 1000.87 1001.11 1001.39 1001.51 1001.47 1001.59 1001.67 1001.47 1001.47 1001.59 1001.63 1001.71 1002.07 1002.55 1003.15 1003.71 1004.15 1004.47 1004.51
995.51 995.39 994.99 994.51 994.75 994.95 994.71 994.23 994.43 994.39 993.87 993.67 993.75 993.63 993.47 993.47 993.95 994.07 994.03 994.19 994.43 994.15 993.59 993.79 994.31 994.71 995.19 995.63 995.91 996.07 996.35 996.63 996.91 997.27 997.71 997.95 998.35 998.87 999.19 999.15 999.31 999.63 999.99 1000.23 1000.55 1000.95 1001.19 1001.27 1001.35 1001.31 1001.23 1001.11 1001.07 1001.11 1001.23 1001.11 1001.43 1001.75 1002.75 1003.23 1003.67 1004.03 1004.19
996.35 996.35 996.07 995.71 995.07 994.59 994.63 994.67 994.79 994.47 994.27 993.71 993.47 993.47 993.39 993.51 994.15 994.31 994.23 994.51 994.23 993.71 993.55 993.67 994.11 994.63 995.03 995.47 995.83 995.95 996.15 996.35 996.67 997.11 997.23 997.67 997.99 998.51 998.99 998.99 999.19 999.35 999.59 1000.07 1000.35 1000.71 1001.07 1001.23 1001.39 1001.51 1001.47 1001.27 1000.91 1000.79 1000.87 1000.91 1001.03 1001.31 1002.15 1002.87 1003.51 1003.91 1004.23
996.19 996.11 995.79 995.11 994.79 995.07 994.83 995.15 994.99 994.83 994.67 994.47 994.35 994.03 993.79 993.67 994.27 994.47 994.63 994.71 993.87 993.71 993.67 993.79 994.15 994.59 995.15 995.51 995.71 995.83 995.95 996.15 996.47 996.75 996.95 997.31 997.75 998.19 998.67 998.91 999.03 999.23 999.43 999.71 1000.11 1000.47 1000.83 1000.99 1001.11 1001.35 1001.47 1001.43 1001.31 1000.87 1000.51 1000.47 1000.67 1000.99 1001.51 1002.43 1003.15 1003.63 1003.87
996.47 996.35 995.95 995.87 995.79 995.39 995.07 995.19 995.39 995.19 995.19 994.91 994.71 994.39 993.99 993.67 994.23 994.63 994.95 994.47 993.87 994.07 994.07 994.15 994.47 994.99 995.43 995.67 995.79 995.87 995.87 996.03 996.27 996.59 996.83 997.07 997.47 998.15 998.47 998.75 998.87 999.39 999.35 999.59 999.99 1000.31 1000.71 1000.87 1000.87 1001.15 1001.11 1001.23 1001.31 1001.07 1000.79 1000.55 1000.47 1000.43 1000.99 1001.55 1002.31 1002.87 1003.31
996.55 996.03 995.67 995.59 995.91 995.75 995.15 994.99 994.99 995.03 995.19 994.95 994.59 994.63 994.43 994.11 994.07 994.91 995.11 994.63 994.27 994.07 994.15 994.47 994.91 995.35 995.59 995.71 995.79 995.91 995.79 996.11 996.31 996.47 996.75 996.95 997.15 997.59 997.95 998.35 998.71 999.11 999.35 999.51 999.79 1000.07 1000.51 1000.63 1000.59 1000.59 1000.67 1000.99 1000.99 1000.99 1000.83 1000.47 1000.31 1000.23 1000.43 1001.35 1001.87 1002.43 1002.63
996.43 996.27 996.23 996.39 996.47 996.19 995.67 995.35 995.55 995.63 995.51 995.51 994.71 994.35 994.35 994.59 994.71 995.03 995.03 994.95 994.55 994.47 994.59 994.79 995.11 995.43 995.55 995.67 995.71 995.79 995.83 996.15 996.31 996.59 996.71 996.91 996.95 997.19 997.59 997.87 998.19 998.55 999.03 999.23 999.47 999.75 1000.07 1000.27 1000.35 1000.39 1000.47 1000.67 1000.71 1000.71 1000.63 1000.55 1000.35 1000.35 1000.19 1000.91 1001.79 1002.31 1002.67
997.15 997.11 996.79 996.75 996.63 996.43 996.15 996.07 996.07 996.27 996.27 996.27 995.75 995.23 994.99 994.99 995.07 994.87 994.63 994.51 994.43 994.59 994.87 995.15 995.31 995.51 995.67 995.59 995.55 995.79 995.91 996.11 996.19 996.51 996.63 996.87 996.91 996.99 997.23 997.51 997.63 997.99 998.59 998.95 999.15 999.51 999.75 999.87 999.91 1000.07 1000.15 1000.35 1000.23 1000.11 1000.31 1000.43 1000.51 1000.27 1000.51 1000.95 1001.31 1001.47 1001.71
997.55 997.51 997.39 997.27 996.87 996.59 996.63 996.63 996.71 996.67 996.59 996.55 996.11 995.87 995.75 995.67 995.39 995.15 995.07 994.91 994.71 994.79 995.15 995.31 995.39 995.27 995.39 995.39 995.43 995.67 995.75 995.91 996.15 996.31 996.35 996.55 996.87 996.95 997.35 997.51 997.27 997.59 997.79 998.11 998.19 998.35 998.75 999.03 999.23 999.31 999.39 999.59 999.83 1000.15 1000.27 1000.19 1000.19 1001.11 1002.27 1002.07 1001.83 1001.63 1001.47
997.79 997.71 997.63 997.31 997.19 997.07 997.19 997.19 997.11 997.19 997.11 996.95 996.63 996.47 996.39 996.27 996.07 995.79 995.47 995.23 995.11 994.95 995.35 995.47 995.47 995.47 995.39 995.27 995.35 995.35 995.71 995.79 995.79 996.03 996.19 996.23 996.63 997.39 998.31 998.59 998.31 997.91 997.87 998.91 999.27 999.23 999.27 999.19 999.87 1000.23 999.99 1000.07 1000.11 1000.43 1001.31 1001.51 1001.43 1001.47 1001.47 1001.83 1002.03 1001.95 1001.79
998.11 997.99 997.87 997.55 997.67 997.75 997.67 997.67 997.55 997.55 997.55 997.31 997.03 996.91 996.75 996.71 996.51 996.31 996.03 995.75 995.51 995.51 995.63 995.75 995.99 996.03 996.19 996.47 996.55 996.55 996.03 995.55 995.59 995.83 996.35 996.07 996.11 996.79 997.99 998.63 999.11 999.55 999.63 999.55 999.79 999.83 1000.11 1000.39 1000.59 1000.63 1000.67 1000.67 1000.63 1000.55 1000.83 1001.31 1001.55 1001.63 1001.83 1001.83 1001.91 1002.23 1002.43
998.11 997.95 997.79 997.71 997.95 998.15 998.11 998.07 997.99 997.91 997.83 997.43 997.23 997.19 997.11 997.11 996.87 996.67 996.39 996.19 996.11 995.99 996.03 995.99 996.23 996.67 996.79 996.75 996.87 996.79 996.71 996.67 996.75 996.15 996.43 996.79 996.99 997.31 997.83 998.39 999.27 999.99 1000.43 1000.47 1000.11 1000.11 1000.35 1000.59 1000.75 1001.03 1001.23 1001.43 1001.43 1001.07 1000.87 1001.03 1001.31 1001.67 1001.67 1001.71 1001.83 1001.99 1002.27
Wind_Speed
15 16 16 16 16 18 19 20 21 21 21 21 21 23 23 21 20 20 20 21 23 22 22 21 20 19 20 18 18 16 16 14 13 13 13 12 11 12 13 12 12 11 11 11 10 11 10 11 10 12 11 12 11 11 10 10 9 9 8 7 7 6 7
18 16 16 16 15 18 19 20 21 20 20 21 21 23 22 23 21 21 20 22 23 24 23 22 22 20 20 18 17 17 17 17 15 12 12 11 11 12 13 13 12 12 11 10 10 10 10 12 11 11 12 12 12 11 11 11 10 10 9 9 8 7 7
18 18 17 17 17 18 20 20 21 21 22 21 22 22 23 23 23 23 22 22 23 22 22 22 22 20 20 19 18 19 18 17 16 16 16 15 16 16 13 13 12 12 12 12 10 10 11 11 12 11 12 12 12 12 11 12 11 11 10 9 9 8 8
19 18 18 18 20 20 21 21 23 21 21 23 23 25 24 23 23 22 22 24 24 23 23 22 22 21 20 19 19 19 19 18 18 17 17 15 15 14 13 13 12 12 12 13 12 11 10 11 13 12 13 12 12 12 12 12 12 11 11 10 9 10 9
20 21 18 17 18 18 19 19 21 22 24 25 25 23 23 22 22 21 21 23 25 26 25 25 21 20 18 19 16 16 18 20 18 17 16 15 14 13 14 16 15 15 13 12 12 11 11 11 12 12 13 12 12 12 13 13 12 12 11 11 10 10 10
19 19 17 18 18 18 19 21 23 25 24 24 24 23 22 23 21 24 23 22 23 23 22 22 22 19 19 20 18 17 18 18 17 17 16 15 15 15 16 16 16 16 15 14 12 13 13 12 13 13 14 14 14 13 13 13 13 13 12 11 11 10 10
15 17 17 17 17 18 20 21 22 23 22 21 20 20 20 22 24 23 22 22 24 24 24 24 23 22 20 19 19 19 20 20 19 20 18 18 17 16 15 15 15 15 14 13 13 13 14 14 14 13 14 14 14 14 13 13 13 12 12 12 12 11 11
17 16 15 16 16 14 15 18 19 20 19 17 19 21 23 22 22 23 24 22 23 23 23 25 23 21 20 19 19 21 21 21 20 19 17 19 18 18 16 16 15 15 14 15 14 14 15 15 14 14 14 15 14 13 13 13 13 14 12 13 13 13 11
16 17 17 17 16 18 15 13 16 17 19 19 20 20 22 21 21 23 25 24 22 23 24 24 24 22 20 19 19 21 20 20 19 19 20 21 19 19 19 17 16 15 15 15 14 15 14 15 15 14 14 14 13 13 13 13 14 13 13 13 14 14 13
14 14 14 14 13 14 17 18 16 14 17 17 16 17 20 20 20 21 21 23 23 26 26 24 22 21 21 20 21 22 20 19 19 21 22 21 19 21 20 18 17 16 17 17 15 15 15 15 15 14 14 14 14 13 13 13 14 14 13 14 14 14 14
9 10 10 8 8 8 9 13 14 12 14 15 16 19 18 20 20 20 21 22 23 23 24 22 21 21 21 22 23 23 21 22 21 22 23 23 20 23 22 21 18 17 18 18 17 17 15 14 14 14 15 14 15 14 14 14 14 14 14 14 13 14 14
9 8 7 7 7 9 11 9 11 11 12 11 15 16 14 15 19 19 19 22 21 20 21 22 21 22 21 21 22 21 23 22 22 23 24 23 22 23 22 21 20 19 17 18 18 18 16 16 14 14 15 15 15 15 15 14 14 15 15 15 14 14 14
7 6 7 8 8 7 5 5 8 12 12 14 16 16 16 17 18 18 17 19 21 19 20 20 20 20 21 21 21 20 22 22 21 21 22 21 21 19 20 20 20 20 19 18 18 18 18 17 16 14 15 15 15 15 15 15 15 14 15 15 14 14 15
5 8 9 9 9 10 10 10 9 10 13 14 15 16 16 16 17 17 17 18 18 19 18 17 19 20 20 19 19 19 21 20 20 19 18 18 17 18 19 19 19 18 17 16 18 18 19 19 17 16 15 16 16 16 15 15 15 15 15 15 15 15 15
6 13 12 12 11 11 11 11 10 11 12 13 14 15 16 15 15 14 15 16 16 18 19 17 18 19 20 19 18 18 17 16 17 17 16 17 16 17 17 17 17 16 16 15 16 15 17 18 18 17 17 16 16 16 16 16 16 14 15 16 16 16 16
4 12 13 11 12 12 11 12 11 12 12 12 14 14 16 15 14 15 15 16 17 16 17 16 18 17 18 19 17 16 16 16 15 16 16 16 16 16 16 16 16 17 16 16 17 15 14 15 16 18 18 17 17 17 15 15 14 15 20 17 15 16 14
3 5 8 13 14 10 12 10 10 11 12 13 14 15 14 14 14 14 16 16 17 17 17 17 15 18 18 16 16 15 15 16 16 16 17 17 16 15 15 16 15 14 14 14 15 15 13 14 16 17 17 18 17 18 16 15 14 19 20 20 19 15 15
6 5 7 6 5 4 3 1 8 12 14 15 15 16 15 13 14 15 16 16 17 17 17 17 18 19 16 15 13 15 16 16 16 16 16 15 16 16 16 15 14 14 14 15 16 14 14 16 16 15 16 16 17 18 17 16 17 20 21 21 21 18 14
7 7 8 7 7 7 9 11 7 12 11 10 12 13 16 15 15 15 15 14 14 14 18 19 19 15 14 15 15 16 16 15 16 16 16 17 16 15 15 15 15 15 16 17 16 15 15 15 16 16 16 16 17 18 18 17 17 21 23 23 23 23 19
9 9 9 8 7 5 6 5 6 7 5 4 7 12 13 14 15 13 14 14 14 16 15 15 15 14 16 16 15 15 16 16 17 17 16 15 15 15 15 16 17 17 16 15 15 16 16 17 17 16 16 16 16 16 17 18 16 22 24 24 25 24 20
8 7 7 8 8 9 5 5 6 7 8 9 7 5 9 12 12 11 13 14 15 15 12 13 15 14 15 16 15 15 16 17 17 16 15 15 16 16 17 17 16 17 16 16 16 16 16 17 17 16 17 18 18 16 17 17 18 22 24 24 25 25 21
10 10 10 7 7 6 7 9 6 6 3 2 3 6 8 10 11 12 14 15 16 16 16 14 14 15 15 16 18 18 17 17 16 15 15 16 17 17 18 17 17 17 15 14 14 14 15 15 16 17 18 17 18 18 18 17 17 21 24 25 24 25 15
12 12 12 9 9 9 2 3 2 4 3 5 6 7 8 8 10 12 13 15 15 16 17 16 14 15 15 17 18 18 17 17 17 16 16 16 17 17 17 16 16 15 13 15 15 15 16 16 16 15 16 18 18 19 17 17 15 21 23 24 25 19 13
13 15 12 11 8 6 6 6 6 6 7 8 9 10 9 9 10 11 12 13 15 16 17 18 18 16 14 16 17 17 16 16 16 16 17 17 18 18 17 16 14 15 14 16 17 17 17 15 15 16 16 18 20 19 18 17 14 21 22 24 25 22 15
14 15 9 6 7 7 7 6 6 6 6 7 9 9 10 11 11 12 12 13 15 16 17 18 17 17 17 16 15 16 15 16 16 16 17 17 17 16 16 16 15 14 14 15 15 15 14 14 14 15 15 17 19 16 18 18 14 20 22 24 24 22 14
12 13 12 10 9 8 6 5 7 8 9 10 10 8 8 10 10 10 10 14 14 15 17 17 15 14 14 14 15 15 15 15 16 16 16 16 15 14 14 13 13 15 15 14 14 14 14 14 14 16 15 15 16 15 18 18 14 15 23 24 24 27 16
11 10 10 10 8 9 8 9 7 6 6 5 5 4 7 8 9 10 9 10 12 14 14 13 12 12 13 13 15 15 16 15 15 16 15 14 14 14 14 14 15 14 14 15 14 13 14 15 15 15 15 15 15 15 17 16 18 14 24 24 25 27 23
9 9 10 9 5 5 6 6 4 5 6 3 4 4 5 6 7 7 7 9 12 12 10 10 11 11 12 13 14 15 15 15 14 15 14 14 13 13 13 13 13 13 14 13 12 13 14 13 13 13 13 13 13 13 13 13 16 11 19 24 26 26 28
10 10 10 8 9 3 5 3 2 3 4 3 3 2 4 6 7 7 7 9 9 9 8 8 10 11 12 12 13 13 14 14 15 13 12 12 13 13 13 12 13 12 12 12 12 12 13 12 12 12 12 11 10 11 11 11 10 13 13 21 22 24 25
6 6 7 7 4 4 4 1 2 2 2 4 4 3 3 4 6 6 6 7 6 7 7 7 8 9 11 11 12 12 13 13 13 13 12 13 13 13 13 12 12 12 11 11 12 12 12 11 11 11 13 14 12 13 13 10 11 10 17 17 23 22 25
8 7 7 4 5 4 3 0 0 0 2 1 2 3 2 2 5 6 6 3 5 7 7 7 7 8 9 10 11 11 11 11 11 12 11 11 12 12 12 13 12 11 10 10 11 11 10 11 11 11 12 12 12 11 11 12 10 10 13 21 22 24 25
9 7 4 3 4 5 2 2 3 4 5 5 5 4 5 5 4 6 5 3 2 4 5 7 8 8 9 8 9 10 11 11 11 11 10 10 10 11 10 11 11 10 10 11 11 10 11 11 11 11 11 11 11 11 10 9 8 8 7 12 16 19 24
6 5 5 5 5 6 3 1 4 5 6 8 7 6 6 6 5 4 4 3 3 3 3 6 7 7 8 8 8 9 9 10 9 9 10 11 10 10 9 9 10 10 10 10 10 10 11 12 11 12 11 11 11 10 10 9 9 9 8 8 8 8 10
6 6 5 7 5 4 2 2 4 6 7 7 7 7 7 7 6 5 3 3 3 4 4 5 7 7 7 8 7 7 8 8 9 9 9 10 9 9 10 9 10 10 10 10 9 8 9 11 11 10 10 10 10 10 9 9 8 10 7 3 4 7 8
7 6 5 7 4 5 1 1 3 5 7 7 6 6 6 7 7 6 4 2 3 4 5 5 6 5 8 7 6 7 7 8 8 8 7 8 8 3 5 1 6 8 8 1 2 5 7 9 10 10 10 10 9 7 9 10 8 2 6 5 9 6 5
5 5 4 3 2 2 4 6 4 4 6 6 6 6 6 7 6 7 7 5 4 3 5 5 5 5 6 6 4 5 8 6 7 8 7 7 9 8 6 11 17 13 5 6 11 18 17 14 6 6 6 6 6 8 6 5 6 11 13 11 7 6 10
3 3 3 2 1 4 4 3 3 6 6 6 5 6 7 7 7 7 7 7 6 5 5 5 5 5 7 7 7 8 3 4 4 8 4 5 6 8 10 8 12 19 19 14 13 15 16 15 14 14 13 7 4 5 8 10 12 13 13 13 13 11 9
1 2 3 2 4 3 4 4 5 6 6 6 6 6 7 7 7 7 7 6 6 6 6 6 6 6 6 5 7 8 8 7 9 3 5 3 3 7 7 6 7 8 14 14 15 15 15 15 14 14 14 13 10 7 5 11 15 15 16 15 14 12 11
Wind_Direction
213 210 197 194 189 192 190 189 190 190 190 188 188 188 185 184 183 181 183 181 181 179 181 181 183 185 187 189 192 193 197 199 198 199 200 203 205 204 203 201 202 204 205 206 206 208 206 209 206 200 200 199 203 201 198 194 198 197 196 197 203 211 200
194 214 205 189 192 193 193 188 188 190 190 190 189 188 188 185 183 184 185 182 182 180 180 182 183 185 186 188 189 192 194 198 199 198 199 200 204 208 206 204 204 204 208 211 207 206 207 203 207 202 202 198 203 201 199 197 195 196 194 193 199 200 200
186 204 207 186 192 199 192 189 188 190 190 191 190 189 190 187 185 184 182 182 183 183 181 183 184 185 186 187 186 192 194 196 196 198 198 199 202 206 206 206 206 206 206 208 211 208 205 205 201 203 201 201 202 201 200 199 197 198 198 192 197 199 197
182 199 204 191 191 189 189 189 188 191 192 192 192 193 192 188 187 183 182 182 182 183 183 184 184 185 185 185 188 188 192 194 197 197 200 201 201 203 205 205 206 206 205 207 207 209 209 204 202 201 201 201 201 198 200 202 201 201 199 193 198 199 198
181 192 199 193 194 188 187 188 188 191 193 194 194 192 193 190 188 187 186 184 183 184 186 185 186 186 186 185 187 188 191 193 195 198 199 201 201 199 205 207 204 206 206 205 205 205 210 205 204 201 200 201 200 200 198 199 200 196 198 195 199 198 197
184 189 199 196 194 191 188 190 191 192 195 194 192 191 191 190 190 192 189 186 188 187 186 186 186 185 186 187 189 189 190 193 194 195 198 198 198 201 204 207 207 206 205 205 202 204 204 208 207 203 203 201 202 201 200 197 199 196 195 195 199 198 200
180 190 198 199 191 190 193 192 194 193 194 194 191 188 190 191 193 193 191 191 190 187 188 187 188 187 188 188 191 189 189 191 193 195 196 198 197 201 204 206 208 206 207 201 205 203 203 205 208 206 204 205 203 204 199 197 198 196 193 195 196 201 203
184 185 198 204 195 185 204 196 194 191 189 192 191 190 193 194 192 192 194 193 192 191 190 190 189 189 187 189 190 191 191 192 192 194 194 196 197 200 202 205 204 206 203 204 202 203 204 203 205 207 205 208 204 205 202 197 197 198 196 196 197 200 200
185 185 189 199 197 189 187 207 196 190 185 191 194 194 193 195 194 195 194 193 193 193 194 193 191 188 185 187 189 192 192 192 192 191 193 197 198 200 201 202 204 203 203 203 202 202 206 203 205 203 205 206 205 202 204 198 197 200 200 198 198 199 201
179 176 186 198 201 195 180 193 191 185 183 187 196 196 195 197 198 198 196 195 194 196 195 193 191 188 186 187 190 191 190 192 193 194 196 198 199 201 203 202 202 201 203 203 205 202 204 207 203 202 201 204 204 202 202 200 198 200 203 202 201 201 203
161 145 151 186 205 202 187 183 175 182 184 185 193 198 197 196 199 199 199 199 198 197 194 193 192 190 189 190 190 189 191 193 194 195 198 200 201 203 203 204 203 202 203 203 207 209 202 204 204 202 200 202 202 201 201 201 200 200 204 206 205 205 204
94 126 142 180 194 194 197 186 171 175 185 187 194 199 199 199 201 203 201 202 202 198 194 193 193 192 190 191 192 192 193 193 195 197 199 201 203 204 204 204 205 204 203 205 205 207 208 201 202 202 200 199 200 201 200 199 200 200 203 205 206 207 208
130 140 172 181 180 173 169 174 177 175 188 195 200 202 201 204 203 204 203 204 203 200 196 194 194 192 191 191 193 193 194 194 196 197 199 201 204 204 204 206 207 207 205 203 206 204 208 205 200 200 200 198 199 200 199 199 200 201 202 205 206 207 209
153 166 155 150 158 159 170 180 188 188 191 200 202 203 204 204 206 205 204 205 203 201 199 196 196 193 191 190 193 193 195 195 195 196 199 200 200 203 205 206 208 207 206 201 205 206 207 208 201 199 200 199 199 199 197 198 201 201 201 204 206 206 208
163 147 148 156 162 165 173 176 186 194 196 201 206 205 205 206 208 206 206 206 203 204 203 195 195 195 194 192 193 193 192 192 192 196 197 199 199 203 205 206 205 205 205 204 205 207 208 208 205 199 199 199 198 197 198 200 201 201 201 202 204 206 208
186 167 167 161 161 168 178 179 181 190 194 198 205 205 203 204 207 207 206 204 203 205 205 195 194 195 196 195 194 190 188 188 189 192 195 196 198 200 201 204 203 205 206 206 207 206 207 208 207 204 200 199 198 198 199 202 203 198 195 197 202 204 207
236 241 181 160 151 178 172 183 180 183 191 196 203 203 204 202 203 205 206 203 204 202 205 201 192 195 198 198 192 187 184 186 190 191 193 196 196 196 199 201 199 202 204 205 206 206 202 208 209 211 204 201 200 200 202 203 204 189 189 193 197 203 206
265 252 256 265 229 228 108 192 187 188 190 196 198 200 203 202 201 202 208 203 203 199 200 204 199 197 195 194 184 187 187 188 188 189 193 193 195 195 195 199 201 200 200 202 206 204 207 207 210 211 209 204 205 206 206 207 199 184 187 189 192 197 205
283 273 275 292 286 267 232 231 215 181 196 197 195 197 200 198 201 201 204 206 200 199 199 203 203 191 187 192 189 188 187 186 186 189 190 192 192 192 191 195 200 202 202 202 201 202 205 207 207 209 211 210 208 211 210 213 192 183 185 189 191 195 201
266 270 264 259 271 298 320 324 308 310 274 221 206 202 197 199 201 201 199 203 199 203 203 199 202 190 186 190 193 190 187 186 187 189 190 189 187 188 191 194 198 201 201 200 200 202 205 206 207 208 209 213 213 213 216 217 189 183 184 189 191 194 198
278 282 290 276 257 256 275 300 290 264 252 252 246 213 193 198 203 196 199 201 203 202 201 197 199 196 187 190 191 191 189 188 188 188 186 185 186 188 192 196 198 199 200 201 201 202 203 205 206 208 209 211 215 217 219 223 191 182 185 189 191 194 197
285 281 272 279 299 313 282 280 274 269 285 298 246 227 215 209 202 202 200 199 202 202 200 198 198 198 187 190 191 193 191 188 187 185 184 186 187 191 196 197 197 197 197 202 205 205 206 208 211 210 211 213 215 219 222 224 192 183 185 188 190 191 196
282 273 263 262 265 264 337 42 276 286 276 244 253 256 240 230 212 207 204 199 201 200 201 199 198 200 192 190 192 193 191 190 189 187 187 188 189 195 198 197 197 197 195 202 207 206 208 210 211 213 213 214 215 218 223 226 192 183 186 187 188 184 199
268 251 254 259 258 281 289 279 280 260 250 257 247 244 248 243 228 206 204 202 198 197 200 201 202 201 196 190 190 190 191 192 192 191 190 189 193 196 198 198 197 199 195 202 206 209 211 210 212 214 216 217 218 217 221 227 196 181 187 189 184 185 194
343 350 356 10 354 325 314 326 343 319 287 267 257 247 231 235 232 211 200 203 202 198 199 203 203 199 197 191 189 190 191 192 194 194 193 195 197 196 197 197 198 199 199 205 209 214 214 213 216 218 219 221 223 217 221 229 211 180 187 189 185 189 196
342 342 342 340 332 3 5 332 295 278 266 256 246 244 233 223 226 219 194 200 205 202 202 204 201 196 197 193 191 192 192 193 194 196 197 198 197 197 198 197 198 200 201 205 208 211 216 216 220 221 222 223 224 222 220 225 223 180 188 186 188 192 195
329 332 331 333 347 358 311 290 276 280 292 7 344 234 237 227 217 218 204 197 205 210 205 197 193 190 193 193 194 191 192 193 194 194 197 197 196 196 197 199 201 201 202 207 208 212 214 218 222 224 225 226 223 227 226 223 227 187 185 187 189 194 196
323 321 313 317 330 290 302 296 335 295 274 286 262 259 257 240 227 216 209 200 207 209 205 182 186 188 190 193 196 196 194 193 190 190 194 194 192 195 199 201 202 203 204 208 210 213 214 216 221 226 228 227 227 231 230 225 216 201 185 188 193 193 200
310 301 302 301 285 311 306 296 303 313 338 337 346 318 258 231 217 213 209 206 201 203 204 186 183 186 189 190 195 197 194 193 188 188 194 193 192 193 196 197 202 202 203 205 210 211 213 216 219 224 231 235 234 233 230 233 226 199 178 193 192 194 200
310 313 296 291 327 339 311 280 275 297 332 0 359 316 289 246 200 201 202 199 186 198 202 191 177 180 187 190 194 196 196 191 189 188 191 191 190 193 194 197 199 201 202 201 205 209 210 213 212 225 235 238 237 240 243 234 236 197 176 182 191 195 200
315 319 305 325 327 338 303 21 171 99 99 92 80 18 349 208 176 183 177 164 187 192 198 183 171 176 187 190 195 194 194 190 190 188 190 187 190 191 196 198 198 201 203 203 206 211 217 222 225 223 233 238 241 245 243 245 239 242 178 181 186 193 199
284 287 310 2 350 326 307 128 114 116 112 125 130 115 53 48 115 137 126 124 114 149 160 166 168 174 184 189 193 195 195 189 188 186 185 186 190 194 196 199 199 202 201 206 209 214 218 229 231 228 229 235 242 243 248 247 252 248 221 176 186 193 199
282 295 301 322 340 315 325 30 112 93 81 63 58 82 105 105 111 127 153 118 157 137 153 171 173 177 182 186 188 188 198 188 186 182 185 191 194 193 195 200 206 206 204 209 212 214 220 227 232 237 235 238 239 239 244 241 253 257 247 138 172 193 206
285 285 309 330 311 303 324 42 78 73 62 59 55 52 66 76 73 68 85 117 159 154 171 175 179 179 183 182 182 175 188 191 178 181 187 189 200 197 191 195 205 205 196 205 211 218 220 224 232 234 239 247 243 244 237 241 242 248 290 15 173 193 190
286 284 293 267 292 310 328 159 79 71 74 68 56 59 70 62 58 63 86 104 115 145 162 163 176 182 171 174 176 173 173 184 179 191 193 177 191 155 33 273 209 200 189 77 267 238 232 230 219 219 234 235 243 248 247 247 244 79 49 21 6 338 230
265 264 253 305 307 305 48 27 39 69 70 70 66 66 67 63 61 58 52 56 60 80 121 141 153 156 158 155 167 161 168 194 179 186 195 185 181 136 91 50 45 35 77 83 54 59 61 67 63 41 20 22 30 48 31 2 345 354 2 7 356 343 313
270 247 226 199 122 50 41 72 79 76 80 81 78 79 74 68 62 57 43 49 51 49 83 97 81 67 50 36 39 16 351 188 186 163 192 209 200 155 131 109 54 42 48 72 82 82 81 86 85 68 52 44 358 19 83 58 20 4 351 347 341 327 309
329 8 29 72 86 91 101 81 68 72 76 78 76 73 70 69 63 54 58 47 48 56 75 75 62 55 44 44 31 26 21 41 13 58 171 124 45 114 138 120 109 74 38 41 68 73 76 79 79 80 79 65 57 32 15 9 4 355 346 338 335 327 312